FW9068 Weather Reports


time (UTC)temp
F
wind
direction
speed
knots
gust
knots
rain 1hr
in
rain 24hr
in
rain mn
in
humidity
%
barometer
mb
20260505140112 71 123 0.0 5.2 0.00 0.00 0.00 55 1008.6
20260505124551 66 106 1.7 5.2 0.00 0.00 0.00 59 1008.9
20260505123053 65 117 0.0 3.5 0.00 0.00 0.00 61 1008.9
20260505121550 64 97 0.0 2.6 0.00 0.00 0.00 65 1008.5
20260505120053 61 0 0.9 4.3 0.00 0.00 0.00 67 1008.5
20260505114549 59 117 0.0 3.5 0.00 0.00 0.00 69 1008.7
20260505113048 57 0 0.0 1.7 0.00 0.00 0.00 73 1008.8
20260505111548 55 0 0.0 0.9 0.00 0.00 0.00 77 1008.9
20260505101548 48 0 0.0 0.0 0.00 0.00 0.00 85 1008.9
20260505100052 49 0 0.0 0.0 0.00 0.00 0.00 83 1008.9
20260505094554 49 0 0.0 0.0 0.00 0.00 0.00 82 1008.8
20260505093053 50 0 0.0 0.0 0.00 0.00 0.00 80 1008.7
20260505091604 51 0 0.0 0.0 0.00 0.00 0.00 79 1008.8
20260505090054 50 0 0.0 0.0 0.00 0.00 0.00 78 1008.8
20260505084550 50 0 0.0 0.0 0.00 0.00 0.00 78 1008.8
20260505083048 51 0 0.0 0.0 0.00 0.00 0.00 77 1009.0
20260505081553 51 0 0.0 0.0 0.00 0.00 0.00 76 1009.0
20260505080100 52 0 0.0 0.0 0.00 0.00 0.00 75 1009.2
20260505074549 52 0 0.0 0.9 0.00 0.00 0.00 75 1009.2
20260505073053 52 0 0.0 0.0 0.00 0.00 0.00 73 1009.2
20260505071554 53 0 0.0 0.9 0.00 0.00 0.00 72 1009.2
20260505070055 53 0 0.0 0.9 0.00 0.00 0.00 72 1009.1
20260505064551 54 0 0.0 0.0 0.00 0.00 0.00 70 1009.0
20260505063112 55 0 0.0 0.0 0.00 0.00 0.00 69 1009.1
20260505061556 55 0 0.0 0.9 0.00 0.00 0.00 67 1009.0
20260505060059 55 105 0.0 4.3 0.00 0.00 0.00 67 1009.2
20260505054607 56 0 0.0 0.9 0.00 0.00 0.00 66 1009.3
20260505053059 56 117 0.0 0.9 0.00 0.00 0.00 64 1009.2
20260505051551 57 0 0.0 3.5 0.00 0.00 0.00 63 1009.3
20260505041557 58 0 0.0 1.7 0.00 0.00 0.00 60 1009.2
20260505040056 59 0 0.0 2.6 0.00 0.00 0.00 59 1009.1
20260505034549 59 0 0.9 4.3 0.00 0.00 0.00 57 1009.0
20260505033047 59 0 0.0 2.6 0.00 0.00 0.00 57 1009.1
20260505031600 60 115 0.9 5.2 0.00 0.00 0.00 56 1008.9
20260505030109 60 112 0.0 2.6 0.00 0.00 0.00 56 1008.9
20260505024556 61 0 0.0 3.5 0.00 0.00 0.00 55 1008.8
20260505023047 61 103 1.7 4.3 0.00 0.00 0.00 53 1008.9
20260505021544 62 122 0.9 5.2 0.00 0.00 0.00 53 1008.9
20260505020051 62 0 0.9 5.2 0.00 0.00 0.00 53 1008.6
20260505014604 61 91 0.9 4.3 0.00 0.00 0.00 53 1008.5
20260505013050 60 91 0.0 1.7 0.00 0.00 0.00 55 1008.2
20260505011556 59 118 0.0 3.5 0.00 0.00 0.00 59 1007.8
20260505010048 61 0 0.0 1.7 0.00 0.00 0.00 53 1007.2
20260505004550 61 0 0.0 0.0 0.00 0.00 0.00 49 1007.0
20260505003047 62 0 0.0 0.9 0.00 0.00 0.00 48 1006.8
20260505001547 63 0 0.0 0.0 0.00 0.00 0.00 44 1006.5
20260505000105 64 0 0.0 0.0 0.00 0.00 0.00 43 1006.5
20260504234551 65 0 0.0 0.0 0.00 0.00 0.00 42 1006.3
20260504233104 67 0 0.0 0.9 0.00 0.00 0.00 41 1006.0
20260504231549 68 0 0.0 1.7 0.00 0.00 0.00 39 1005.7
20260504230047 69 0 0.0 3.5 0.00 0.00 0.00 38 1005.5
20260504224548 69 0 0.0 0.9 0.00 0.00 0.00 38 1005.3
20260504223112 69 0 0.0 0.9 0.00 0.00 0.00 38 1005.2
20260504221549 70 0 0.9 3.5 0.00 0.00 0.00 36 1005.3
20260504220048 71 137 0.0 5.2 0.00 0.00 0.00 35 1005.2
20260504214548 71 0 0.0 3.5 0.00 0.00 0.00 35 1005.1
20260504213059 72 0 0.0 4.3 0.00 0.00 0.00 34 1005.2
20260504211551 73 297 1.7 7.8 0.00 0.00 0.00 32 1005.3
20260504210054 73 117 0.0 6.1 0.00 0.00 0.00 33 1005.0
20260504204550 72 128 0.0 3.5 0.00 0.00 0.00 33 1005.0
20260504203059 71 137 0.9 5.2 0.00 0.00 0.00 33 1005.1
20260504201554 73 0 0.9 6.1 0.00 0.00 0.00 31 1005.0
20260504200051 74 0 0.9 5.2 0.00 0.00 0.00 33 1005.0
20260504194550 74 143 0.9 5.2 0.00 0.00 0.00 31 1005.2
20260504193055 74 142 0.0 6.1 0.00 0.00 0.00 31 1005.3
20260504191554 73 129 0.9 4.3 0.00 0.00 0.00 34 1005.4
20260504190049 71 127 1.7 5.2 0.00 0.00 0.00 33 1005.4
20260504184549 71 101 2.6 8.7 0.00 0.00 0.00 32 1005.6
20260504183053 74 108 0.9 8.7 0.00 0.00 0.00 30 1005.6
20260504181554 74 173 1.7 7.0 0.00 0.00 0.00 31 1005.6
20260504180055 74 0 0.9 7.0 0.00 0.00 0.00 31 1005.5
20260504174548 73 117 1.7 7.0 0.00 0.00 0.00 33 1005.6
20260504173050 73 129 1.7 8.7 0.00 0.00 0.00 32 1005.8
20260504171550 73 37 0.9 7.0 0.00 0.00 0.00 31 1005.8